{"data":{"norad_id":65895,"intl_designator":"2025-224P","name":"STARLINK-34898","alt_names":[],"object_type":"PAYLOAD","status":"ACTIVE","operator":null,"country":"US","launch_date":"2025-10-07","launch_site_code":"AFETR","launch_vehicle":null,"mission":null,"orbit_class":"UNKNOWN","rcs_meters":null,"size_class":null,"mass_kg":null,"dimensions":null,"purposes":["comms"],"wikipedia_slug":null,"has_3d_model":false,"image_url":null,"decayed_at":null,"tle_current":{"epoch":"2026-05-25T00:30:05.285664Z","epoch_age_seconds":76353,"freshness":"FRESH","line1":"1 65895U 25224P   26145.02089451  .00017303  00000+0  52187-3 0  9994","line2":"2 65895  53.1601  15.8947 0000913  91.4426 268.6681 15.34411223 36578","mean_motion":15.34411223,"eccentricity":9.13e-5,"inclination_deg":53.1601,"raan_deg":15.8947,"arg_perigee_deg":91.4426,"mean_anomaly_deg":268.6681,"bstar":0.00052187,"rev_number":3657,"period_min":93.847071659486,"perigee_km":462.04531762084,"apogee_km":463.29444895773,"semimajor_km":6840.8068832893,"source":"CELESTRAK","updated_at":"2026-05-25T13:38:20.981635Z"}}}